This is the latest recevied weather packets stored in our database for station/object FW0690. If no packets are shown the sender has not sent any weather packets the latest 10 day(s).
| Time | Temp. | Humidity | Pressure | Rain* | Wind** | Luminosity | Snow |
|---|---|---|---|---|---|---|---|
| 1778067522 | 30.56° C | 21% | 1012.8 hPa | - | - | 28 W/m² | - |
| 1778067521 | 30.56° C | 21% | 1012.8 hPa | - | - | 28 W/m² | - |
| 1778067162 | 30.56° C | 21% | 1012.9 hPa | - | - | 28 W/m² | - |
| 1778067161 | 30.56° C | 21% | 1012.9 hPa | - | - | 28 W/m² | - |
| 1778066801 | 30.56° C | 21% | 1012.9 hPa | - | - | 28 W/m² | - |
| 1778066441 | 30.56° C | 21% | 1012.9 hPa | - | - | 28 W/m² | - |
| 1778066081 | 31.11° C | 22% | 1012.9 hPa | - | - | 26 W/m² | - |
| 1778065721 | 30.56° C | 22% | 1012.9 hPa | - | - | 27 W/m² | - |
| 1778065361 | 30° C | 22% | 1013 hPa | - | - | 27 W/m² | - |
| 1778065001 | 29.44° C | 23% | 1013.1 hPa | - | - | 27 W/m² | - |
| 1778064641 | 30.56° C | 23% | 1013.1 hPa | - | - | 27 W/m² | - |
| 1778064281 | 29.44° C | 23% | 1013.1 hPa | - | - | 27 W/m² | - |
| 1778063921 | 29.44° C | 23% | 1013.1 hPa | - | - | 27 W/m² | - |
| 1778063561 | 29.44° C | 23% | 1013.1 hPa | - | - | 26 W/m² | - |
| 1778063201 | 29.44° C | 23% | 1013.1 hPa | - | - | 26 W/m² | - |
| 1778062841 | 30° C | 23% | 1013.1 hPa | - | - | 27 W/m² | - |
| 1778062482 | 28.89° C | 23% | 1013.2 hPa | - | - | 27 W/m² | - |
| 1778062481 | 28.89° C | 23% | 1013.2 hPa | - | - | 27 W/m² | - |
| 1778062122 | 29.44° C | 24% | 1013.2 hPa | - | - | 32 W/m² | - |
| 1778062121 | 29.44° C | 24% | 1013.2 hPa | - | - | 32 W/m² | - |
| 1778061761 | 28.89° C | 24% | 1013.3 hPa | - | - | 123 W/m² | - |
| 1778061401 | 28.33° C | 24% | 1013.3 hPa | - | - | 181 W/m² | - |
| 1778061041 | 27.78° C | 24% | 1013.3 hPa | - | - | 162 W/m² | - |
| 1778060681 | 27.22° C | 24% | 1013.4 hPa | - | - | 56 W/m² | - |
| 1778060321 | 27.78° C | 25% | 1013.4 hPa | - | - | 88 W/m² | - |
* Rain since midnight (hover to see other rain measurements)
** Current wind speed in m/s (hover to see current wind gust speed)